User: anonymous   Login
Location: Unspecified
(0.0000°N, 0.0000°E)
Time: 21:25:10
(UTC+00:00)
Language:

Nadezhda 1 - Orbit

View from above orbital plane
View from above orbital plane
View from above satellite
View from above satellite

Ground track
Ground track

The orbit data is extracted from the following two-line orbital elements,

1 20103U 89050A   18051.95927934 +.00000022 +00000-0 +79253-5 0  9996
2 20103 082.9615 025.0896 0036332 303.4942 109.0086 13.74558861436039
Epoch (UTC): 20 February 2018 23:01:21
Eccentricity: 0.0036332
inclination: 82.9615°
perigee height: 956 km
apogee height: 1010 km
right ascension of ascending node: 25.0896°
argument of perigee: 303.4942°
revolutions per day: 13.74558861
mean anomaly at epoch: 109.0086°
orbit number at epoch: 43603

The dashed part of the orbit path shows where the satellite is in the earth's shadow,  

DLR